Location: Nelson
(47.1935°N, 121.0537°W)
Time: 06:28:33
(UTC+00:00)

BlueWalker 3 - Pass Details

Date: 02 December 2022
Orbit: 499 x 517 km, 53.2° (Epoch: 27 January)

Event Time Altitude Azimuth Distance (km) Brightness Sun altitude
Rises 01:33:04 0° 276° (W) 2,635 6.9 -12.6°
Reaches altitude 10° 01:35:25 10° 285° (WNW) 1,745 5.6 -13.0°
Maximum altitude 01:39:04 35° 352° (N) 847 3.0 -13.6°
Enters shadow 01:41:06 21° 45° (NE) 1,198 3.3 -13.9°
